Location: Newark
(46.9000°N, 28.3500°E)
Time: 23:44:57
(UTC+00:00)

Vanguard 1 Rocket - Pass Details

Date: 31 August 2019
Orbit: 650 x 4226 km, 34.3° (Epoch: 17 October)

Event Time Altitude Azimuth Distance (km) Brightness Sun altitude
Rises 22:20:10 0° 233° (SW) 3,704 - -34.5°
Reaches altitude 10° 22:23:59 10° 214° (SW) 2,378 - -34.5°
Maximum altitude 22:27:14 17° 174° (S) 1,747 - -34.4°
Drops below altitude 10° 22:30:05 10° 133° (SE) 2,054 - -34.4°
Sets 22:33:02 0° 111° (ESE) 2,972 - -34.3°
